Location: Eschertshofen
(49.3064°N, 11.5756°E)
Time: 12:45:50
(UTC+00:00)

Iridium 26 - Pass Details

Date: 29 September 2021
Orbit: 772 x 775 km, 86.4° (Epoch: 15 October)

Event Time Altitude Azimuth Distance (km) Brightness Sun altitude
Exits shadow 20:18:50 38° 358° (N) 1,177 6.6 -31.7°
Drops below altitude 10° 20:22:00 10° 3° (N) 2,332 8.4 -32.1°
Sets 20:24:21 0° 4° (N) 3,263 9.2 -32.4°
